Showing default

QIANFAN-81, 63167

Orbit data source: Space-Track

QIANFAN-81, 63167 is a Chinese payload satellite in LEO that was launched on Tue, 11 Mar 2025 UTC via a CHANG ZHENG 8 launch vehicle from the Wenchang Satellite Launch Center (WSC). Payload-class satellites include a variety of spacecraft equipped with specific instruments for various scientific and technological missions. These include communications satellites like Starlink; space stations such as the ISS; scientific satellites like the Hubble; Earth observation satellites from companies like Planet Labs, Umbra, and HawkEye 360; GPS; miniature CubeSats for education and research; and military/defense satellites.

Loading next visibility...
Identifier
63167, 2025-046J
Orbit
LEO
Country
Flag of CNCN / PRC
Related business
Manufacturer
GESIH
Mission
Operational Commercial Communications
Bus & Motor
QIANFAN, Unknown motor
Mass
267 kg wet, ~267 kg dry
Launch date (UTC)
2025-03-11 (1 year ago)
Launch vehicle
CHANG ZHENG 8
Launch site
Wenchang Satellite Launch Center (WSC)
Object type
Payload
Rocket body
Debris
Shape & HBR
Box + 1 Pan, 1.5 m
Radar Cross Section
13.200 m², Large (>1 m²)

Expand to show TLE details & history
Last TLE update: 11 hours ago

TLE from 11 hours ago
0 QIANFAN-81
1 63167U 25046J   26171.38844848  .00000130  00000-0  18257-3 0  9994
2 63167  88.9713 300.2023 0012784 295.1464  64.8360 13.51017691 73094
Epoch: 2026-06-20T09:19Z
TLE epoch observation values (Epoch: 2026-06-20T09:19:21.948Z)
Latitude
-0.0001°
Longitude
-108.24294°
Altitude
1,067.431 km
Speed
7.32 km/s
True Right ascension
20h 00m 48s
True Declination
0° 00' 00"
Sunlit
Object was in full shadow at epoch
Visualization orbit readout
Latitude
Unknown
Longitude
Unknown
Altitude
Unknown
Speed
Unknown
Apparent Right ascension
Unknown
Apparent Declination
Unknown
Sunlit
N/A
Visualization observer readout
Local Sidereal Time
07:19:32
Azimuth
Unknown
Elevation
Unknown
Doppler factor
Unknown
Orbital elements
Apogee altitude
1,075.084 km
Perigee altitude
1,056.052 km
Semi-major axis
7,443.705 km
Eccentricity
0.00128
Inclination
88.9713°
RAAN
300.2023°
Arg. of periapsis
295.1464°
True anomaly
64.96868°
Mean anomaly
64.836°
Eccentric anomaly
64.90233°
Mean motion
3.37955 °/min
Orbital period
106.52 mins
BSTAR
0.00018257
Loading maneuver chart data...
Computing Atmospheric mass density...
Loading historical data...
Loading historical data...
Loading historical data...
Loading historical data...
Loading historical data...
Loading historical data...
Loading historical data...

Documentation

Showing up to 5 results
|